Flag for Poland Weather past 2 weeks in Koszalin, Poland

Now
54 °F

Passing clouds.


Feels Like: 54 °F
Forecast: 52 / 72 °F
Wind: 2 mph from Southwest

Location: Koszalin

Current Time: Aug 28, 2014 at 5:46:47 AM

Latest Report: Aug 28, 2014 at 4:00 AM


Visibility: 25 mi

Pressure: 29.95 "Hg

Humidity: 88%

Dew point: 51 °F

Location of KoszalinLocation

Historic Weather in Koszalin — Graph

°F

Koszalin temperature yesterday

Maximum temperature yesterday: 66 °F (at 2:00 PM)
Minimum temperature yesterday: 47 °F (at 5:00 AM)
Average temperature yesterday: 58 °F

Past Weeks' High & Low Weather Summary

 TemperatureHumidityPressure
High75 °F (Aug 13, 1:00 PM)94% (Aug 27, 6:00 AM)29.97 "Hg (Aug 27, 6:00 AM)
Low45 °F (Aug 26, 6:00 AM)35% (Aug 13, 1:00 PM)29.54 "Hg (Aug 18, 6:00 PM)
Average59 °F72%29.81 "Hg
* Reported Aug 13 5:00 AM — Aug 28 4:00 AM, Koszalin, Weather by CustomWeather, © 2014

Note: Actual official high and low records may vary slightly from our data, if they occured in-between our weather recording intervals... More about our weather records

Advertising

Koszalin weather history for previous 24 hours

 ConditionsComfort  
Time TempWeatherWind HumidityBarometerVisibility
4:00 AM
Aug 28
54 °FPassing clouds.2 mph88%29.95 "Hg25 mi
3:00 AM54 °FPassing clouds.2 mph85%29.95 "Hg28 mi
2:00 AM57 °FPassing clouds.3 mph81%29.95 "Hg31 mi
1:00 AM57 °FPassing clouds.3 mph81%29.94 "Hg31 mi
12:00 AM57 °FPassing clouds.3 mph82%29.94 "Hg31 mi
11:00 PM
Aug 27
58 °FPassing clouds.3 mph81%29.93 "Hg31 mi
10:00 PM58 °FPassing clouds.3 mph81%29.93 "Hg28 mi
9:00 PM60 °FClear.3 mph82%29.93 "Hg31 mi
8:00 PM62 °FOvercast.3 mph76%29.92 "Hg28 mi
7:00 PM64 °FOvercast.7 mph72%29.91 "Hg25 mi
6:00 PM64 °FOvercast.7 mph72%29.91 "Hg22 mi
4:00 PM63 °FOvercast.8 mph73%29.90 "Hg28 mi
3:00 PM65 °FOvercast.8 mph64%29.89 "Hg28 mi
2:00 PM66 °FOvercast.6 mph60%29.88 "Hg22 mi
1:00 PM64 °FOvercast.7 mph63%29.88 "Hg22 mi
12:00 PM63 °FOvercast.7 mph70%29.88 "Hg19 mi
11:00 AM64 °FOvercast.8 mph65%29.86 "Hg19 mi
10:00 AM64 °FScattered clouds.6 mph67%29.84 "Hg19 mi
9:00 AM60 °FPartly sunny.5 mph84%29.83 "Hg25 mi
8:00 AM54 °FPartly sunny.1 mph93%29.82 "Hg22 mi
7:00 AM49 °FOvercast.1 mph93%29.81 "Hg9 mi
6:00 AM48 °FPartly sunny.1 mph94%29.80 "Hg7 mi
5:00 AM47 °FClear.1 mph93%29.79 "Hg6 mi
Weather by CustomWeather, © 2014

See weather overviewHow to use our weather pages